User: anonymous   Login
Location: Hepcat Sky Observatory
(29.9800°N, 95.6500°W)
Time: 15:13:32
(UTC-06:00)
Language:

Cosmos 2151 Rocket - Orbit

View from above orbital plane
View from above orbital plane
View from above satellite
View from above satellite

Ground track
Ground track

The orbit data is extracted from the following two-line orbital elements,

1 21423U 91042B   16042.15816137  .00000198  00000-0  23234-4 0  9999
2 21423  82.4914  61.1895 0019085  64.3711 295.9471 14.79602097329823
Epoch (UTC): 11 February 2016 03:47:45
Eccentricity: 0.0019085
inclination: 82.4914°
perigee height: 617 km
apogee height: 644 km
right ascension of ascending node: 61.1895°
argument of perigee: 64.3711°
revolutions per day: 14.79602097
mean anomaly at epoch: 295.9471°
orbit number at epoch: 32982

The dashed part of the orbit path shows where the satellite is in the earth's shadow,  

DLR